228  
SXUS52 KTAE 271518  
OSOTAE  
OSOTAE  
NORTH FLORIDA/SOUTH ALABAMA/SOUTHWEST GEORGIA WEATHER ROUNDUP  
NATIONAL WEATHER SERVICE TALLAHASSEE FLORIDA  
1100 AM EDT TUE JUN 27 2017  
 
NOTE: "FAIR" INDICATES FEW OR NO CLOUDS BELOW 12,000 FEET WITH NO  
SIGNIFICANT WEATHER AND/OR OBSTRUCTIONS TO VISIBILITY.  
 
!FLZ017-115-028-034-025-271600   
..NORTH FLORIDA
 
 
 
CITY SKY/WX TMP DP RH WIND PRES REMARKS  
TALLAHASSEE CLOUDY 83 74 74 CALM 30.02S  
APALACHICOLA CLOUDY 86 74 67 NW7 30.00F HX 94  
PERRY CLOUDY 82 75 79 CALM 30.03S  
CROSS CITY CLOUDY 82 75 78 NW3 30.03S  
JACKSONVILLE CLOUDY 80 74 81 NW5 30.03R  

 
 
!FLZ112-006-005-002-011-271600   
..FLORIDA PANHANDLE
 
 
 
CITY SKY/WX TMP DP RH WIND PRES REMARKS  
MARIANNA PTSUNNY 84 74 71 N6 30.02F HX 91  
BONIFAY NOT AVBL  
PANAMA CITY NW FAIR 84 71 65 CALM 30.01F  
TYNDALL AFB CLOUDY 83 69 62 CALM 30.02S  
TYND DRONE APT PTSUNNY 82 69 64 CALM 30.02S  
DE FUNIAK SPR FAIR 82 70 66 N5 30.04S  
EGLIN AFB NOT AVBL  
DESTIN CLOUDY 83 79 88 NE3 30.03S HX 94  
HURLBURT PTSUNNY 81 67 62 CALM 30.01S  
CRESTVIEW CLOUDY 85 70 60 E5 30.05S  
PENSACOLA CLOUDY 84 69 60 CALM 30.03S  

 
 
!ALZ063-066-271600   
..SOUTH ALABAMA
 
 
 
CITY SKY/WX TMP DP RH WIND PRES REMARKS  
DOTHAN MOSUNNY 82 72 71 NE6 30.09S  
OZARK CAIRNS NOT AVBL  
FT RUCKER HELI NOT AVBL  
RUCKER HELI 3 FAIR 77 66 69 NE6 30.05  
RUCKER HELI 2 FAIR 77 68 73 NE6 30.05  
FLORALA APT CLOUDY 82 70 66 NE5 30.06F  
ANDALUSIA CLOUDY 81 67 62 NE7 30.05S  
TROY CLOUDY 79 68 69 NE3 30.08R  
EUFALA FAIR 80 68 66 CALM 30.06  
MOBILE PTSUNNY 80 67 64 CALM 30.05S  

 
 
!GAZ120>161-271600   
..SOUTHWEST AND SOUTH CENTRAL GEORGIA
 
 
 
CITY SKY/WX TMP DP RH WIND PRES REMARKS  
THOMASVILLE NOT AVBL  
BAINBRIDGE MOSUNNY 86 77 74 N3 30.04S HX 97  
MOODY AFB NOT AVBL  
VALDOSTA MOSUNNY 79 72 79 NE5 30.04S  
MOULTRIE MOSUNNY 81 72 74 CALM 30.05S  
BLAKELY MOSUNNY 86 72 62 E6 30.05S HX 92  
ALBANY PTSUNNY 86 72 62 N7 30.06S HX 92  
TIFTON CLOUDY 80 72 75 NE5 30.05S  
FITZGERALD FAIR 84 73 70 N3 30.07S HX 90  
CORDELE FAIR 83 71 66 NE7 30.06F  
AMERICUS FAIR 77 64 65 N5 30.08S  
HOMERVILLE PTSUNNY 81 72 74 CALM 30.05S  

 
 
!GMZ750-755-770-775-271600   
..COASTAL AND BUOY OBS
 
 
 
STATION/POSITION TIME TEMP WIND PRES VSBY WAVE  
AIR SEA DIR/SP/G HT/PER  
(UTC) (F) (DEG/KT/KT) (MB) (MI) (FT/S)  
KEATON BEACH 1500 79 40/ 3/ 5 1016.2S  
CEDAR KEY 1500 85 270/ 7/ 10 1016.8F  
C TOWER 1500 82 290/ 7/ 8 1016.9F  
APALACHICOLA BUO 1450 82 85 280/ 4/ 6 1016.5R 1  
PANAMA CITY BUOY 1450 81 83 310/ 2/ 4 1016.6R 1/ 6  
MOBILE BUOY 1500 82 85 360/ 6/ 8 1016.5  
ORANGE BCH AL BU 1450 79 82 50/ 6/ 6 1016.5F 1/ 5  

 
 
 
CLICK HERE TO GO TO PREVIOUS BULLETINS.

The Nexlab FL Page
The Nexlab GA Page
The Nexlab AL Page Main Text Page